CW9098 Weather Reports


Display with metric or nautical units.
time (UTC)temp
F
wind
direction
speed
MPH
gust
MPH
rain 1hr
in
rain 24hr
in
rain mn
in
humidity
%
barometer
mb
20260831085124 64 144 0.0 0.0 0.01 0.03 0.03 85 1019.6
20260831084618 64 79 0.0 0.0 0.01 0.03 0.03 85 1019.5
20260831084134 64 79 0.0 0.0 0.01 0.03 0.03 85 1019.5
20260831083621 64 79 0.0 0.0 0.01 0.03 0.03 85 1019.6
20260831083134 64 79 0.0 0.0 0.01 0.03 0.03 85 1019.4
20260831082622 64 79 0.0 0.0 0.01 0.03 0.03 85 1019.4
20260831082158 64 76 0.0 0.0 0.01 0.03 0.03 85 1019.3
20260831081644 64 76 0.0 0.0 0.00 0.02 0.02 85 1019.3
20260831081118 64 74 0.0 0.0 0.00 0.02 0.02 85 1019.3
20260831080648 64 74 0.0 0.0 0.00 0.02 0.02 85 1019.3
20260831080136 64 74 0.0 0.0 0.00 0.02 0.02 85 1019.4
20260831075644 64 74 0.0 0.0 0.00 0.02 0.02 85 1019.5
20260831075138 64 74 0.0 0.0 0.00 0.02 0.02 85 1019.4
20260831074622 64 74 0.0 0.0 0.00 0.02 0.02 85 1019.5
20260831074138 64 72 0.0 0.0 0.00 0.02 0.02 85 1019.5
20260831073644 64 72 0.0 0.0 0.00 0.02 0.02 85 1019.5
20260831073117 64 72 0.0 0.0 0.00 0.02 0.02 84 1019.4
20260831072632 64 72 0.0 0.0 0.00 0.02 0.02 85 1019.4
20260831072118 64 72 0.0 0.0 0.00 0.02 0.02 85 1019.4
20260831071633 64 72 0.0 0.0 0.00 0.02 0.02 84 1019.5
20260831071122 64 72 0.0 0.0 0.00 0.02 0.02 84 1019.6
20260831070635 64 72 0.0 0.0 0.00 0.02 0.02 84 1019.7
20260831070122 64 72 0.0 0.0 0.00 0.02 0.02 84 1019.7
20260831065639 64 72 0.0 0.0 0.00 0.02 0.02 84 1019.7
20260831065132 64 72 0.0 0.0 0.00 0.02 0.02 84 1019.7
20260831064641 64 72 0.0 0.0 0.00 0.02 0.02 84 1020.0
20260831064116 65 72 0.0 0.0 0.00 0.02 0.02 84 1020.0
20260831063625 65 72 0.0 0.0 0.00 0.02 0.02 84 1020.0
20260831063120 65 72 0.0 0.0 0.00 0.02 0.02 84 1020.1
20260831062636 65 72 0.0 0.0 0.00 0.02 0.02 84 1020.1
20260831062128 65 72 0.0 0.0 0.00 0.02 0.02 84 1020.1
20260831061643 65 72 0.0 0.0 0.00 0.02 0.02 84 1020.0
20260831061117 65 72 0.0 0.0 0.00 0.02 0.02 84 1019.9
20260831060630 66 71 0.0 0.0 0.00 0.02 0.02 84 1019.9
20260831060138 66 71 0.0 0.0 0.00 0.02 0.02 84 1020.0
20260831055625 66 71 0.0 0.0 0.00 0.02 0.02 84 1020.2
20260831055119 66 71 0.0 0.0 0.00 0.02 0.02 84 1020.1
20260831054653 66 71 0.0 0.0 0.00 0.02 0.02 84 1020.2
20260831054140 66 71 0.0 0.0 0.00 0.02 0.02 84 1020.3
20260831053635 66 71 0.0 0.0 0.00 0.02 0.02 84 1020.4
20260831053122 66 71 0.0 0.0 0.00 0.02 0.02 84 1020.5
20260831052658 66 71 0.0 0.0 0.00 0.02 0.02 84 1020.5
20260831052123 66 71 0.0 0.0 0.00 0.02 0.02 84 1020.5
20260831051618 66 71 0.0 0.0 0.00 0.02 0.02 84 1020.6
20260831051134 66 71 0.0 0.0 0.00 0.02 0.02 84 1020.5
20260831050621 66 71 0.0 0.0 0.00 0.02 0.02 84 1020.6
20260831050114 66 71 0.0 0.0 0.00 0.02 0.02 84 1020.6
20260831045626 66 71 0.0 0.0 0.00 0.02 0.02 84 1020.5
20260831045119 67 71 0.0 0.0 0.00 0.02 0.02 84 1020.5
20260831044652 67 71 0.0 0.0 0.00 0.02 0.02 84 1020.4
20260831044120 67 71 0.0 0.0 0.00 0.02 0.02 84 1020.4
20260831043634 67 71 0.0 2.0 0.00 0.02 0.02 84 1020.4
20260831043121 67 71 0.0 2.0 0.00 0.02 0.02 84 1020.6
20260831042635 67 53 0.0 5.0 0.00 0.02 0.02 84 1020.7
20260831042120 67 56 2.0 5.0 0.00 0.02 0.02 84 1020.7
20260831041634 67 68 0.0 0.0 0.00 0.02 0.02 84 1020.7
20260831041142 67 32 0.0 0.0 0.00 0.02 0.02 84 1020.9
20260831040635 67 29 0.0 0.0 0.00 0.02 0.02 84 1020.9
20260831040124 67 29 0.0 0.0 0.02 0.02 0.02 84 1020.8
20260831035634 67 29 0.0 0.0 0.02 0.02 0.02 84 1020.8
20260831035120 67 29 0.0 0.0 0.02 0.02 0.02 84 1020.7
20260831034615 67 29 0.0 0.0 0.02 0.02 0.02 84 1020.5
20260831034132 67 29 0.0 0.0 0.02 0.02 0.02 84 1020.7
20260831033619 67 29 0.0 0.0 0.02 0.02 0.02 83 1020.7
20260831033134 67 30 0.0 0.0 0.02 0.02 0.02 83 1020.7
20260831032622 68 30 0.0 0.0 0.02 0.02 0.02 83 1020.8
20260831032137 68 29 0.0 0.0 0.02 0.02 0.02 83 1020.8
20260831031624 68 29 0.0 0.0 0.02 0.02 0.02 83 1020.8
20260831031137 68 293 0.0 0.0 0.02 0.02 0.02 84 1020.9
20260831030623 68 289 0.0 0.0 0.01 0.01 0.01 83 1020.9
20260831030152 68 289 0.0 0.0 0.00 0.00 0.00 83 1020.8
20260831025641 68 287 0.0 0.0 0.00 0.00 0.00 83 1020.8
20260831025126 68 286 0.0 0.0 0.00 0.00 0.00 83 1020.9
20260831024618 68 286 0.0 0.0 0.00 0.00 0.00 83 1020.9
20260831024134 68 286 0.0 0.0 0.00 0.00 0.00 83 1020.9
20260831023620 68 286 0.0 0.0 0.00 0.00 0.00 83 1020.8
20260831023134 68 286 0.0 0.0 0.00 0.00 0.00 83 1020.8
20260831022623 68 286 0.0 0.0 0.00 0.00 0.00 83 1020.9
20260831022155 68 286 0.0 0.0 0.00 0.00 0.00 83 1020.8
20260831021621 68 286 0.0 0.0 0.00 0.00 0.00 83 1020.8
20260831021115 69 286 0.0 0.0 0.00 0.00 0.00 83 1020.6
20260831020630 69 286 0.0 0.0 0.00 0.00 0.00 83 1020.7
20260831020118 69 286 0.0 0.0 0.00 0.00 0.00 83 1020.7
20260831015633 69 286 0.0 0.0 0.00 0.00 0.00 83 1020.5
20260831015120 69 286 0.0 0.0 0.00 0.00 0.00 83 1020.6
20260831014615 69 286 0.0 0.0 0.00 0.00 0.00 83 1020.5
20260831014131 69 286 0.0 0.0 0.00 0.00 0.00 83 1020.4
20260831013619 69 286 0.0 0.0 0.00 0.00 0.00 83 1020.4
20260831013155 69 286 0.0 0.0 0.00 0.00 0.00 83 1020.3
20260831012622 69 286 0.0 0.0 0.00 0.00 0.00 83 1020.3
20260831012114 69 286 0.0 0.0 0.00 0.00 0.00 83 1020.2
20260831011644 69 286 0.0 0.0 0.00 0.00 0.00 83 1020.1
20260831011118 69 286 0.0 0.0 0.00 0.00 0.00 83 1020.2
20260831010633 69 286 0.0 0.0 0.00 0.00 0.00 83 1020.1
20260831010123 70 286 0.0 0.0 0.00 0.00 0.00 83 1020.0
20260831005639 70 286 0.0 0.0 0.00 0.00 0.00 83 1019.8
20260831005124 70 286 0.0 0.0 0.00 0.00 0.00 83 1019.8
20260831004618 70 286 0.0 0.0 0.00 0.00 0.00 83 1019.7
20260831004134 70 286 0.0 0.0 0.00 0.00 0.00 83 1019.6
20260831003621 70 286 0.0 0.0 0.00 0.00 0.00 83 1019.5
20260831003116 70 286 0.0 0.0 0.00 0.00 0.00 83 1019.5
20260831002631 70 286 0.0 0.0 0.00 0.00 0.00 83 1019.5
20260831002117 71 286 0.0 0.0 0.00 0.00 0.00 82 1019.4
20260831001630 71 286 0.0 0.0 0.00 0.00 0.00 83 1019.4
20260831001138 71 286 0.0 0.0 0.00 0.00 0.00 82 1019.3
20260831000644 71 286 0.0 0.0 0.00 0.00 0.00 82 1019.2
20260831000138 71 286 0.0 0.0 0.00 0.00 0.00 82 1019.2
20260830235646 72 286 0.0 0.0 0.00 0.00 0.00 82 1019.1
20260830235118 72 286 0.0 0.0 0.00 0.00 0.00 82 1019.0
20260830234654 72 286 0.0 0.0 0.00 0.00 0.00 82 1019.1
20260830234139 72 286 0.0 0.0 0.00 0.00 0.00 82 1019.1
20260830233627 72 286 0.0 0.0 0.00 0.00 0.00 82 1019.0
20260830233133 72 286 0.0 0.0 0.00 0.00 0.00 82 1018.9
20260830232621 73 286 0.0 0.0 0.00 0.00 0.00 82 1018.9
20260830232115 73 286 0.0 0.0 0.00 0.00 0.00 82 1018.9
20260830231631 73 286 0.0 0.0 0.00 0.00 0.00 81 1019.0
20260830231124 73 286 0.0 0.0 0.00 0.00 0.00 81 1019.0
20260830230636 73 286 0.0 0.0 0.00 0.00 0.00 81 1019.0
20260830230123 73 286 0.0 0.0 0.00 0.00 0.00 82 1019.0
20260830225618 73 286 0.0 0.0 0.00 0.00 0.00 82 1018.9
20260830225132 74 283 0.0 0.0 0.00 0.00 0.00 81 1018.9
20260830224619 74 283 0.0 0.0 0.00 0.00 0.00 80 1018.9
20260830224134 74 283 0.0 0.0 0.00 0.00 0.00 81 1018.9
20260830223636 75 283 0.0 0.0 0.00 0.00 0.00 80 1019.0
20260830223122 75 283 0.0 0.0 0.00 0.00 0.00 80 1019.0
20260830222635 75 283 0.0 0.0 0.00 0.00 0.00 80 1019.0
20260830222141 75 283 0.0 0.0 0.00 0.00 0.00 80 1019.1
20260830221635 75 283 0.0 0.0 0.00 0.00 0.00 80 1019.1
20260830221123 76 283 0.0 0.0 0.00 0.00 0.00 79 1019.1
20260830220617 76 283 0.0 0.0 0.00 0.00 0.00 78 1019.1
20260830220133 76 283 0.0 0.0 0.00 0.00 0.00 78 1019.1
20260830215619 76 283 0.0 0.0 0.00 0.00 0.00 78 1019.0
20260830215153 76 283 0.0 0.0 0.00 0.00 0.00 78 1019.0
20260830214635 76 283 0.0 0.0 0.00 0.00 0.00 77 1019.1
20260830214124 77 283 0.0 0.0 0.00 0.00 0.00 77 1019.0
20260830213638 77 283 0.0 0.0 0.00 0.00 0.00 77 1019.0
20260830213124 77 283 0.0 0.0 0.00 0.00 0.00 76 1019.1
20260830212641 78 283 0.0 0.0 0.00 0.00 0.00 75 1019.0
20260830212134 78 283 0.0 0.0 0.00 0.00 0.00 75 1019.0
20260830211621 78 283 0.0 0.0 0.00 0.00 0.00 74 1018.9
20260830211157 79 284 0.0 0.0 0.00 0.00 0.00 73 1018.9
20260830210623 79 284 0.0 0.0 0.00 0.00 0.00 71 1018.9
20260830210137 80 284 0.0 0.0 0.00 0.00 0.00 70 1019.0
20260830205624 80 284 0.0 0.0 0.00 0.00 0.00 67 1019.1
20260830205116 80 284 0.0 1.0 0.00 0.00 0.00 62 1019.0
20260830204632 81 284 0.0 1.0 0.00 0.00 0.00 62 1019.0
20260830204120 81 284 0.0 7.0 0.00 0.00 0.00 62 1019.0
20260830203632 81 280 3.0 7.0 0.00 0.00 0.00 60 1019.0
20260830203120 81 313 2.0 7.0 0.00 0.00 0.00 60 1019.0
20260830202636 82 304 2.0 9.0 0.00 0.00 0.00 59 1019.0
20260830202121 82 318 2.0 9.0 0.00 0.00 0.00 59 1018.9
20260830201614 82 282 3.0 10.0 0.00 0.00 0.00 59 1019.0
20260830201131 82 282 1.0 13.0 0.00 0.00 0.00 59 1019.0
20260830200617 83 249 6.0 12.0 0.00 0.00 0.00 56 1019.1
20260830200132 83 253 4.0 15.0 0.00 0.00 0.00 55 1019.1
20260830195619 84 310 9.0 15.0 0.00 0.00 0.00 54 1019.0
20260830195134 84 316 5.0 12.0 0.00 0.00 0.00 55 1019.0
20260830194621 85 315 2.0 6.0 0.00 0.00 0.00 52 1019.0
20260830194117 84 274 2.0 8.0 0.00 0.00 0.00 53 1019.0
20260830193647 85 334 2.0 9.0 0.00 0.00 0.00 55 1019.1
20260830193117 84 274 4.0 9.0 0.00 0.00 0.00 53 1019.2
20260830192632 84 285 2.0 8.0 0.00 0.00 0.00 58 1019.4
20260830192137 85 296 2.0 9.0 0.00 0.00 0.00 57 1019.5
20260830191623 84 320 3.0 9.0 0.00 0.00 0.00 57 1019.5
20260830191139 83 291 2.0 8.0 0.00 0.00 0.00 58 1019.5
20260830190623 83 321 1.0 8.0 0.00 0.00 0.00 57 1019.5
20260830190158 83 262 0.0 10.0 0.00 0.00 0.00 57 1019.7
20260830185625 84 282 6.0 11.0 0.00 0.00 0.00 54 1019.7
20260830185118 84 283 7.0 14.0 0.00 0.00 0.00 53 1019.7
20260830184632 84 293 9.0 14.0 0.00 0.00 0.00 56 1019.9
20260830184119 85 309 3.0 9.0 0.00 0.00 0.00 59 1019.9
20260830183633 83 295 2.0 9.0 0.00 0.00 0.00 56 1020.0
20260830183121 83 292 6.0 10.0 0.00 0.00 0.00 60 1020.1
20260830182617 82 282 2.0 9.0 0.00 0.00 0.00 59 1020.2
20260830182130 83 226 4.0 11.0 0.00 0.00 0.00 58 1020.3
20260830181617 83 225 4.0 15.0 0.00 0.00 0.00 58 1020.3
20260830181133 83 259 9.0 15.0 0.00 0.00 0.00 56 1020.3
20260830180619 84 314 5.0 12.0 0.00 0.00 0.00 59 1020.3
20260830180135 83 243 5.0 10.0 0.00 0.00 0.00 60 1020.5
20260830175623 82 271 3.0 11.0 0.00 0.00 0.00 62 1020.6
20260830175135 83 164 1.0 6.0 0.00 0.00 0.00 64 1020.5
20260830174644 83 197 1.0 6.0 0.00 0.00 0.00 66 1020.6
20260830174137 83 195 1.0 6.0 0.00 0.00 0.00 68 1020.6
20260830173622 82 217 4.0 7.0 0.00 0.00 0.00 66 1020.6
20260830173116 82 224 4.0 7.0 0.00 0.00 0.00 69 1020.7
20260830172632 82 186 0.0 5.0 0.00 0.00 0.00 68 1020.7
20260830172118 82 170 2.0 5.0 0.00 0.00 0.00 69 1020.7
20260830171632 83 178 1.0 6.0 0.00 0.00 0.00 66 1020.8
20260830171119 84 172 1.0 10.0 0.00 0.00 0.00 66 1020.9
20260830170633 83 167 4.0 10.0 0.00 0.00 0.00 70 1021.0
20260830170121 82 139 3.0 8.0 0.00 0.00 0.00 70 1020.9
20260830165636 81 156 4.0 9.0 0.00 0.00 0.00 72 1020.9
20260830165123 81 141 3.0 7.0 0.00 0.00 0.00 71 1021.0
20260830164638 81 187 3.0 8.0 0.00 0.00 0.00 72 1021.0
20260830164123 80 170 4.0 8.0 0.00 0.00 0.00 73 1021.0
20260830163632 79 162 4.0 9.0 0.00 0.00 0.00 74 1021.0
20260830163139 79 168 4.0 9.0 0.00 0.00 0.00 73 1021.0
20260830162633 79 193 4.0 9.0 0.00 0.00 0.00 74 1020.9
20260830162120 79 182 5.0 11.0 0.00 0.00 0.00 73 1021.0
20260830161634 79 168 4.0 8.0 0.00 0.00 0.00 72 1021.1
20260830160631 79 159 2.0 7.0 0.00 0.00 0.00 73 1021.1
20260830160131 79 227 2.0 8.0 0.00 0.00 0.00 73 1021.3
20260830155619 78 172 5.0 8.0 0.00 0.00 0.00 74 1021.3
20260830155113 77 172 2.0 8.0 0.00 0.00 0.00 73 1021.3
20260830154629 77 162 4.0 9.0 0.00 0.00 0.00 73 1021.3
20260830154136 78 171 6.0 11.0 0.00 0.00 0.00 72 1021.5
20260830153620 78 189 6.0 11.0 0.00 0.00 0.00 76 1021.4
20260830153134 76 162 4.0 9.0 0.00 0.00 0.00 76 1021.5
20260830152641 76 170 4.0 9.0 0.00 0.00 0.00 76 1021.6
20260830152136 75 153 3.0 7.0 0.00 0.00 0.00 76 1021.6
20260830151623 75 173 4.0 6.0 0.00 0.00 0.00 77 1021.6
20260830151118 74 221 2.0 6.0 0.00 0.00 0.00 77 1021.6
20260830150651 73 185 1.0 8.0 0.00 0.00 0.00 77 1021.6
20260830150118 73 173 2.0 8.0 0.00 0.00 0.00 77 1021.7
20260830145634 73 166 2.0 6.0 0.00 0.00 0.00 77 1021.7
20260830145119 73 175 4.0 7.0 0.00 0.00 0.00 77 1021.7
20260830144634 73 187 1.0 7.0 0.00 0.00 0.00 78 1021.6
20260830144142 72 178 3.0 9.0 0.00 0.00 0.00 78 1021.6
20260830143636 72 172 2.0 7.0 0.00 0.00 0.00 79 1021.6
20260830143141 71 183 2.0 5.0 0.00 0.00 0.00 79 1021.6
20260830142652 71 189 2.0 7.0 0.00 0.00 0.00 78 1021.6
20260830142146 71 210 4.0 9.0 0.00 0.00 0.00 78 1021.5
20260830141619 71 178 5.0 9.0 0.00 0.00 0.00 78 1021.5
20260830141134 70 191 4.0 8.0 0.00 0.00 0.00 79 1021.5
20260830140620 70 196 4.0 8.0 0.00 0.00 0.00 79 1021.6
20260830140136 69 180 5.0 8.0 0.00 0.00 0.00 80 1021.6
20260830135623 68 178 2.0 6.0 0.00 0.00 0.00 80 1021.6
20260830135115 67 196 3.0 6.0 0.00 0.00 0.00 82 1021.6
20260830134614 66 207 1.0 5.0 0.00 0.00 0.00 82 1021.7
20260830134158 66 190 2.0 5.0 0.00 0.00 0.00 82 1021.7
20260830133622 65 193 0.0 5.0 0.00 0.00 0.00 82 1021.7
20260830133157 65 193 3.0 5.0 0.00 0.00 0.00 82 1021.7
20260830132624 65 201 1.0 5.0 0.00 0.00 0.00 82 1021.7
20260830132117 65 206 1.0 6.0 0.00 0.00 0.00 83 1021.6
20260830131631 64 203 3.0 6.0 0.00 0.00 0.00 83 1021.6
20260830131140 64 218 1.0 7.0 0.00 0.00 0.00 83 1021.7
20260830130622 64 194 2.0 5.0 0.00 0.00 0.00 83 1021.6
20260830130116 63 210 1.0 4.0 0.00 0.00 0.00 83 1021.6
20260830125632 63 202 0.0 4.0 0.00 0.00 0.00 84 1021.7
20260830125135 62 201 0.0 5.0 0.00 0.00 0.00 84 1021.8
20260830124642 62 206 2.0 5.0 0.00 0.00 0.00 84 1021.8
20260830124116 62 207 2.0 5.0 0.00 0.00 0.00 84 1021.8
20260830123631 62 193 1.0 5.0 0.00 0.00 0.00 84 1021.8
20260830123125 62 222 2.0 7.0 0.00 0.00 0.00 84 1021.8
20260830122620 61 233 3.0 5.0 0.00 0.00 0.00 84 1021.9
20260830122135 61 217 2.0 6.0 0.00 0.00 0.00 84 1021.9
20260830121622 61 216 4.0 6.0 0.00 0.00 0.00 84 1021.8
20260830121117 61 205 2.0 6.0 0.00 0.00 0.00 84 1021.8
20260830120651 60 208 3.0 6.0 0.00 0.00 0.00 85 1021.9
20260830120118 59 199 3.0 8.0 0.00 0.00 0.00 85 1022.0
20260830115633 59 213 4.0 8.0 0.00 0.00 0.00 85 1022.0
20260830115118 58 215 4.0 7.0 0.00 0.00 0.00 85 1022.0
20260830114633 58 212 3.0 7.0 0.00 0.00 0.00 85 1021.9
20260830114142 58 211 3.0 7.0 0.00 0.00 0.00 85 1021.9
20260830113636 58 206 3.0 5.0 0.00 0.00 0.00 85 1021.9
20260830113131 57 198 2.0 5.0 0.00 0.00 0.00 85 1021.9
20260830112620 57 214 0.0 7.0 0.00 0.00 0.00 85 1021.9
20260830112135 57 202 3.0 7.0 0.00 0.00 0.00 85 1021.9
20260830111621 57 220 2.0 6.0 0.00 0.00 0.00 85 1021.8
20260830111136 57 221 1.0 6.0 0.00 0.00 0.00 85 1021.8
20260830110623 57 223 2.0 6.0 0.00 0.00 0.00 85 1021.7
20260830110117 57 225 0.0 4.0 0.00 0.00 0.00 85 1021.8
20260830105629 57 212 0.0 0.0 0.00 0.00 0.00 85 1021.7
20260830105116 57 204 0.0 0.0 0.00 0.00 0.00 85 1021.7
20260830104630 57 207 0.0 0.0 0.00 0.00 0.00 85 1021.7
20260830104124 56 207 0.0 0.0 0.00 0.00 0.00 85 1021.9
20260830103618 56 207 0.0 0.0 0.00 0.00 0.00 85 1021.8
20260830103132 56 207 0.0 0.0 0.00 0.00 0.00 85 1021.7
20260830102629 56 206 0.0 0.0 0.00 0.00 0.00 85 1021.7
20260830102143 56 207 0.0 0.0 0.00 0.00 0.00 85 1021.7
20260830101616 56 207 0.0 0.0 0.00 0.00 0.00 85 1021.7
20260830101132 56 207 0.0 0.0 0.00 0.00 0.00 85 1021.7
20260830100618 56 207 0.0 0.0 0.00 0.00 0.00 85 1021.8
20260830100153 56 209 0.0 0.0 0.00 0.00 0.00 85 1021.8
20260830095642 56 209 0.0 0.0 0.00 0.00 0.00 86 1021.7
20260830095115 56 209 0.0 0.0 0.00 0.00 0.00 86 1021.7
20260830094631 56 209 0.0 0.0 0.00 0.00 0.00 86 1021.7
20260830094119 56 209 0.0 0.0 0.00 0.00 0.00 86 1021.7
20260830093633 56 218 0.0 0.0 0.00 0.00 0.00 86 1021.7
20260830093119 56 218 0.0 0.0 0.00 0.00 0.00 86 1021.7
20260830092635 56 219 0.0 0.0 0.00 0.00 0.00 86 1021.8
20260830092122 56 222 0.0 0.0 0.00 0.00 0.00 86 1021.7
20260830091617 56 223 0.0 0.0 0.00 0.00 0.00 85 1021.8
20260830091133 55 224 0.0 0.0 0.00 0.00 0.00 85 1021.7
20260830090637 55 223 0.0 0.0 0.00 0.00 0.00 86 1021.7
20260830090139 55 222 0.0 0.0 0.00 0.00 0.00 86 1021.8
20260830085614 55 222 0.0 0.0 0.00 0.00 0.00 86 1021.8